QPF
0.00 0.00 0.00 0.01 0.01 0.00 0.00 0.02 0.01 0.00 0.00 0.00 0.00 0.00 0.00 0.00 0.00 0.00 0.00 0.00 0.00 0.00 0.00 0.00 0.00 0.00 0.00 0.00 0.00 0.00 0.00 0.00 0.00 0.00 0.00 0.00 0.00 0.00 0.00 0.00 0.00 0.02 0.05 0.03
0.00 0.00 0.00 0.00 0.01 0.01 0.00 0.02 0.02 0.01 0.00 0.00 0.00 0.00 0.00 0.00 0.00 0.00 0.00 0.00 0.00 0.00 0.00 0.00 0.00 0.00 0.00 0.00 0.00 0.00 0.00 0.00 0.00 0.00 0.00 0.00 0.00 0.00 0.00 0.00 0.00 0.00 0.03 0.02
0.00 0.00 0.00 0.00 0.02 0.03 0.03 0.00 0.02 0.04 0.02 0.00 0.00 0.00 0.00 0.00 0.00 0.00 0.00 0.00 0.00 0.00 0.00 0.00 0.00 0.00 0.00 0.00 0.00 0.00 0.00 0.00 0.00 0.00 0.00 0.00 0.00 0.00 0.00 0.00 0.02 0.02 0.01 0.01
0.00 0.00 0.00 0.00 0.00 0.08 0.08 0.07 0.03 0.01 0.02 0.01 0.00 0.00 0.00 0.00 0.00 0.00 0.00 0.00 0.00 0.00 0.00 0.00 0.00 0.00 0.00 0.00 0.00 0.00 0.00 0.00 0.00 0.00 0.00 0.00 0.00 0.00 0.00 0.00 0.00 0.03 0.02 0.01
0.00 0.00 0.00 0.00 0.01 0.07 0.09 0.19 0.11 0.02 0.01 0.00 0.01 0.02 0.01 0.00 0.00 0.00 0.00 0.00 0.00 0.00 0.00 0.00 0.00 0.00 0.00 0.00 0.00 0.00 0.00 0.00 0.00 0.00 0.00 0.00 0.00 0.00 0.00 0.00 0.00 0.00 0.00 0.00
0.00 0.00 0.00 0.00 0.01 0.02 0.05 0.10 0.09 0.09 0.06 0.04 0.04 0.03 0.01 0.00 0.00 0.01 0.00 0.01 0.02 0.02 0.01 0.01 0.00 0.00 0.00 0.00 0.00 0.00 0.00 0.01 0.01 0.01 0.00 0.00 0.01 0.00 0.00 0.00 0.00 0.00 0.00 0.00
0.00 0.00 0.00 0.00 0.01 0.02 0.03 0.07 0.13 0.12 0.11 0.04 0.03 0.02 0.01 0.01 0.02 0.02 0.02 0.01 0.02 0.01 0.00 0.00 0.00 0.00 0.00 0.00 0.00 0.00 0.01 0.02 0.03 0.02 0.02 0.05 0.00 0.00 0.00 0.00 0.00 0.00 0.00 0.00
0.00 0.00 0.00 0.00 0.00 0.00 0.04 0.06 0.12 0.13 0.10 0.04 0.03 0.02 0.01 0.02 0.01 0.01 0.00 0.00 0.00 0.00 0.00 0.01 0.00 0.00 0.00 0.00 0.00 0.00 0.01 0.03 0.05 0.04 0.03 0.02 0.00 0.00 0.00 0.00 0.00 0.00 0.00 0.00
0.00 0.00 0.00 0.00 0.00 0.00 0.01 0.04 0.05 0.07 0.07 0.03 0.00 0.01 0.00 0.00 0.00 0.00 0.00 0.00 0.00 0.00 0.01 0.04 0.02 0.00 0.01 0.01 0.01 0.00 0.00 0.02 0.05 0.07 0.09 0.03 0.00 0.01 0.00 0.00 0.00 0.02 0.03 0.05
0.01 0.01 0.00 0.00 0.00 0.00 0.00 0.00 0.00 0.01 0.01 0.00 0.00 0.00 0.01 0.01 0.01 0.00 0.00 0.01 0.02 0.04 0.06 0.05 0.03 0.01 0.01 0.02 0.03 0.04 0.04 0.04 0.04 0.04 0.06 0.02 0.00 0.00 0.00 0.00 0.02 0.04 0.04 0.06
0.01 0.00 0.00 0.00 0.00 0.00 0.00 0.00 0.00 0.00 0.00 0.00 0.00 0.00 0.00 0.01 0.01 0.03 0.05 0.02 0.04 0.07 0.07 0.06 0.04 0.03 0.03 0.03 0.02 0.04 0.04 0.04 0.03 0.04 0.04 0.02 0.00 0.00 0.00 0.01 0.00 0.00 0.01 0.03
0.00 0.00 0.00 0.00 0.00 0.00 0.00 0.00 0.00 0.00 0.00 0.00 0.00 0.00 0.00 0.00 0.00 0.00 0.01 0.03 0.05 0.09 0.10 0.12 0.12 0.07 0.05 0.04 0.03 0.01 0.02 0.01 0.02 0.02 0.03 0.01 0.00 0.00 0.00 0.00 0.00 0.00 0.00 0.01
0.00 0.00 0.00 0.00 0.00 0.00 0.00 0.00 0.00 0.01 0.01 0.00 0.00 0.00 0.00 0.00 0.00 0.00 0.00 0.01 0.01 0.03 0.06 0.07 0.13 0.09 0.05 0.06 0.04 0.04 0.01 0.00 0.01 0.01 0.00 0.00 0.00 0.00 0.00 0.00 0.00 0.00 0.00 0.00
0.00 0.00 0.00 0.00 0.00 0.00 0.00 0.00 0.01 0.00 0.01 0.00 0.00 0.00 0.00 0.00 0.00 0.00 0.00 0.00 0.00 0.02 0.06 0.15 0.12 0.04 0.03 0.04 0.04 0.04 0.03 0.03 0.02 0.02 0.00 0.00 0.00 0.00 0.00 0.00 0.00 0.00 0.00 0.00
0.00 0.00 0.00 0.00 0.00 0.00 0.01 0.02 0.01 0.00 0.01 0.02 0.01 0.00 0.00 0.00 0.00 0.00 0.00 0.00 0.00 0.00 0.01 0.03 0.02 0.01 0.04 0.04 0.03 0.01 0.01 0.01 0.03 0.02 0.00 0.01 0.00 0.00 0.00 0.00 0.00 0.00 0.00 0.01
0.00 0.00 0.00 0.00 0.00 0.00 0.01 0.00 0.00 0.00 0.02 0.04 0.01 0.00 0.00 0.00 0.00 0.00 0.00 0.00 0.00 0.01 0.02 0.02 0.02 0.01 0.06 0.10 0.04 0.00 0.00 0.00 0.00 0.00 0.00 0.00 0.00 0.00 0.00 0.00 0.00 0.00 0.00 0.00
0.00 0.00 0.00 0.00 0.00 0.00 0.00 0.01 0.02 0.00 0.03 0.04 0.02 0.00 0.00 0.00 0.00 0.00 0.00 0.00 0.02 0.03 0.02 0.02 0.02 0.02 0.06 0.06 0.02 0.00 0.00 0.00 0.00 0.00 0.00 0.00 0.00 0.00 0.00 0.00 0.00 0.00 0.00 0.00
0.01 0.00 0.00 0.00 0.00 0.01 0.01 0.01 0.00 0.01 0.03 0.03 0.02 0.00 0.00 0.00 0.01 0.03 0.03 0.02 0.03 0.06 0.08 0.07 0.03 0.03 0.06 0.04 0.00 0.00 0.00 0.00 0.00 0.00 0.00 0.00 0.00 0.00 0.00 0.00 0.00 0.00 0.00 0.00
0.00 0.00 0.00 0.00 0.01 0.01 0.00 0.01 0.01 0.06 0.08 0.06 0.04 0.01 0.00 0.03 0.04 0.07 0.02 0.03 0.05 0.06 0.08 0.05 0.05 0.04 0.03 0.00 0.00 0.00 0.00 0.00 0.00 0.00 0.00 0.00 0.00 0.00 0.00 0.00 0.00 0.00 0.00 0.00
0.01 0.01 0.01 0.01 0.00 0.00 0.01 0.02 0.05 0.05 0.03 0.04 0.02 0.01 0.02 0.02 0.05 0.07 0.07 0.11 0.13 0.09 0.03 0.02 0.04 0.00 0.00 0.00 0.00 0.00 0.00 0.00 0.00 0.00 0.00 0.00 0.00 0.00 0.00 0.00 0.00 0.00 0.00 0.00
0.03 0.01 0.01 0.04 0.02 0.04 0.06 0.05 0.04 0.03 0.02 0.00 0.00 0.00 0.00 0.00 0.00 0.07 0.14 0.11 0.06 0.03 0.03 0.02 0.01 0.00 0.00 0.00 0.00 0.00 0.00 0.00 0.00 0.00 0.00 0.00 0.00 0.00 0.00 0.00 0.00 0.00 0.00 0.00
0.01 0.02 0.05 0.06 0.05 0.10 0.03 0.04 0.04 0.03 0.01 0.00 0.00 0.00 0.00 0.00 0.00 0.06 0.21 0.14 0.04 0.02 0.04 0.03 0.00 0.00 0.00 0.00 0.00 0.00 0.00 0.00 0.00 0.00 0.00 0.00 0.00 0.00 0.00 0.00 0.00 0.00 0.00 0.00
0.03 0.02 0.04 0.04 0.02 0.09 0.04 0.01 0.01 0.01 0.02 0.03 0.03 0.02 0.01 0.02 0.04 0.07 0.06 0.03 0.02 0.01 0.01 0.01 0.00 0.00 0.00 0.00 0.00 0.00 0.00 0.00 0.01 0.02 0.02 0.01 0.00 0.00 0.00 0.00 0.00 0.00 0.00 0.00
0.04 0.05 0.03 0.06 0.11 0.02 0.00 0.01 0.02 0.03 0.03 0.04 0.07 0.06 0.04 0.04 0.05 0.06 0.04 0.03 0.01 0.01 0.01 0.00 0.01 0.01 0.00 0.00 0.00 0.00 0.01 0.04 0.05 0.05 0.02 0.00 0.00 0.00 0.00 0.00 0.00 0.00 0.01 0.01
0.02 0.03 0.04 0.02 0.02 0.03 0.07 0.06 0.03 0.01 0.02 0.04 0.11 0.12 0.08 0.07 0.08 0.03 0.03 0.02 0.01 0.00 0.00 0.01 0.01 0.00 0.00 0.00 0.00 0.00 0.01 0.04 0.02 0.00 0.00 0.00 0.00 0.00 0.00 0.00 0.00 0.00 0.00 0.00
0.01 0.01 0.05 0.10 0.09 0.04 0.02 0.01 0.01 0.02 0.01 0.02 0.04 0.06 0.04 0.04 0.02 0.02 0.01 0.00 0.00 0.01 0.03 0.02 0.00 0.00 0.00 0.00 0.00 0.00 0.01 0.01 0.00 0.00 0.00 0.00 0.00 0.00 0.00 0.00 0.00 0.00 0.00 0.00
0.02 0.01 0.03 0.10 0.12 0.08 0.03 0.01 0.01 0.02 0.02 0.03 0.06 0.04 0.02 0.03 0.04 0.03 0.03 0.02 0.03 0.04 0.02 0.00 0.00 0.00 0.00 0.00 0.00 0.01 0.02 0.01 0.00 0.00 0.00 0.00 0.00 0.00 0.00 0.00 0.00 0.00 0.00 0.00
MSLP
1016.09 1016.56 1017.05 1017.86 1018.45 1019.11 1019.69 1019.22 1018.85 1018.98 1019.07 1018.76 1017.35 1016.20 1015.36 1015.03 1014.26 1014.80 1014.58 1014.03 1012.89 1012.37 1011.97 1011.74 1011.45 1011.10 1010.96 1010.98 1011.25 1011.40 1010.88 1009.97 1009.13 1008.72 1007.99 1007.64 1007.51 1007.03 1006.82 1006.53 1006.25 1005.93 1005.96 1005.80
1016.21 1016.53 1016.95 1017.44 1018.16 1018.72 1019.06 1018.85 1018.81 1019.40 1019.16 1017.44 1016.76 1016.05 1015.34 1014.83 1014.68 1014.65 1014.50 1014.16 1013.88 1013.40 1013.28 1013.02 1012.05 1011.53 1011.36 1011.92 1012.26 1012.15 1012.09 1010.73 1009.78 1008.66 1007.81 1006.81 1007.28 1007.25 1007.30 1007.57 1007.83 1007.48 1007.05 1006.10
1016.43 1016.95 1017.06 1017.35 1017.76 1018.33 1019.00 1019.54 1019.55 1019.64 1019.19 1017.36 1016.37 1015.52 1015.34 1015.11 1015.48 1015.23 1014.86 1014.82 1014.56 1014.29 1013.52 1013.45 1012.63 1012.55 1012.13 1012.59 1012.77 1013.26 1013.62 1012.04 1011.34 1010.11 1009.01 1007.90 1008.38 1008.35 1008.09 1008.07 1008.04 1007.96 1007.73 1007.18
1016.59 1017.08 1017.26 1017.63 1017.74 1018.24 1018.93 1019.39 1018.95 1018.46 1018.50 1017.98 1016.93 1016.32 1015.84 1015.23 1015.61 1016.00 1015.45 1014.89 1014.74 1014.39 1013.66 1013.20 1012.82 1012.67 1012.64 1012.59 1012.85 1013.09 1013.23 1011.87 1011.34 1010.31 1009.16 1008.15 1007.82 1007.94 1007.65 1007.63 1007.74 1007.45 1007.30 1006.88
1016.60 1017.04 1017.44 1017.71 1017.85 1018.48 1019.07 1019.53 1019.41 1019.06 1017.73 1017.62 1017.12 1016.46 1015.79 1015.41 1015.13 1015.36 1015.07 1014.85 1014.10 1014.28 1013.80 1013.48 1013.05 1013.12 1013.06 1012.68 1012.51 1012.29 1012.10 1011.65 1011.57 1010.70 1009.65 1008.79 1007.99 1007.52 1007.18 1007.03 1006.98 1006.57 1006.17 1005.63
1016.69 1017.04 1017.32 1017.65 1018.08 1018.27 1018.70 1019.46 1019.32 1019.03 1018.23 1017.35 1016.88 1016.52 1015.70 1015.35 1015.64 1016.02 1014.90 1014.65 1014.64 1014.24 1014.32 1014.41 1014.12 1014.05 1013.86 1013.48 1012.86 1012.56 1012.40 1012.12 1011.65 1010.49 1009.91 1009.21 1008.34 1007.30 1007.21 1006.70 1006.48 1006.22 1005.87 1005.44
1016.83 1017.32 1017.45 1017.71 1017.95 1018.19 1018.45 1018.92 1019.35 1019.08 1018.02 1017.29 1016.72 1016.54 1016.03 1015.93 1015.58 1015.09 1014.98 1014.89 1015.05 1015.01 1015.16 1014.82 1014.30 1013.92 1013.40 1013.00 1012.29 1012.30 1012.01 1011.94 1011.88 1010.90 1010.04 1008.82 1007.25 1006.89 1006.45 1006.31 1006.22 1006.09 1005.58 1005.40
1016.81 1017.24 1017.71 1017.78 1018.03 1018.25 1018.07 1018.54 1018.96 1018.74 1017.82 1017.16 1016.98 1016.53 1016.08 1016.04 1016.07 1015.89 1015.17 1014.61 1014.55 1014.90 1015.18 1015.14 1014.10 1012.88 1012.11 1011.15 1010.68 1010.50 1010.78 1011.19 1011.36 1010.96 1009.64 1008.27 1006.88 1005.87 1005.88 1006.01 1005.90 1005.91 1005.49 1005.60
1017.03 1017.46 1017.76 1017.92 1018.11 1018.20 1018.01 1018.24 1018.50 1018.63 1018.38 1017.53 1017.06 1016.70 1016.15 1015.83 1015.42 1015.15 1014.77 1014.73 1015.00 1015.15 1015.11 1015.20 1013.84 1012.09 1010.93 1009.58 1008.88 1008.93 1009.31 1010.03 1010.66 1010.40 1009.25 1007.63 1006.12 1006.73 1006.80 1006.75 1005.98 1006.34 1006.90 1007.16
1017.15 1017.67 1018.15 1018.32 1018.47 1018.49 1018.08 1017.41 1018.22 1018.02 1017.94 1017.20 1017.05 1016.65 1016.44 1015.92 1015.68 1014.94 1014.52 1014.56 1014.71 1014.90 1015.03 1014.90 1013.58 1011.99 1010.90 1009.47 1008.77 1008.96 1009.34 1009.43 1009.55 1009.34 1008.57 1007.10 1005.92 1006.67 1006.89 1006.61 1006.72 1007.07 1007.37 1007.51
1017.27 1017.71 1018.19 1018.55 1018.59 1018.78 1018.36 1017.85 1018.28 1018.05 1018.01 1017.33 1017.36 1017.05 1016.83 1016.27 1016.11 1015.64 1015.68 1015.47 1014.92 1015.12 1015.27 1014.61 1013.42 1012.10 1010.64 1009.39 1009.11 1008.76 1009.14 1008.79 1008.50 1008.59 1007.82 1006.80 1006.46 1006.63 1006.70 1006.56 1006.73 1006.94 1007.10 1007.19
1017.46 1017.64 1018.36 1018.44 1018.32 1018.97 1019.08 1018.14 1018.38 1018.54 1018.44 1017.57 1017.77 1017.55 1017.22 1016.86 1016.72 1016.47 1016.20 1015.73 1015.62 1016.26 1015.97 1014.97 1014.69 1012.89 1011.20 1010.08 1009.16 1008.80 1008.77 1008.46 1008.07 1008.21 1006.80 1006.47 1006.37 1006.32 1006.29 1006.39 1006.50 1006.55 1006.70 1007.11
1017.78 1017.89 1018.27 1018.52 1018.44 1018.96 1019.03 1018.34 1018.41 1018.57 1018.47 1017.89 1017.02 1016.54 1016.35 1016.68 1016.87 1016.83 1016.55 1016.03 1016.00 1015.71 1016.46 1016.51 1015.83 1014.36 1012.55 1011.12 1009.98 1009.36 1008.80 1008.72 1007.81 1007.94 1007.04 1006.41 1006.02 1005.78 1005.65 1005.69 1005.88 1006.07 1006.41 1006.34
1017.54 1017.93 1018.33 1018.37 1018.59 1018.88 1019.16 1018.51 1018.62 1018.44 1018.01 1017.45 1015.94 1015.79 1015.86 1015.94 1015.97 1016.06 1016.33 1015.96 1015.85 1016.20 1016.70 1016.68 1015.97 1014.55 1013.06 1011.73 1010.78 1010.04 1008.91 1009.10 1008.19 1007.44 1006.74 1006.05 1005.58 1005.44 1005.55 1005.61 1005.86 1006.20 1006.44 1006.46
1017.60 1018.02 1018.27 1018.46 1018.63 1018.85 1018.87 1018.50 1018.48 1018.37 1018.29 1017.27 1016.27 1015.62 1015.36 1015.25 1015.25 1015.29 1015.38 1015.74 1015.92 1015.89 1016.07 1015.82 1014.94 1014.09 1013.47 1011.99 1010.85 1009.09 1008.54 1007.72 1007.57 1006.72 1006.27 1005.77 1005.39 1005.44 1005.53 1005.67 1005.89 1005.93 1006.09 1006.29
1017.54 1017.91 1018.11 1018.42 1018.66 1018.88 1018.51 1018.25 1017.80 1017.96 1018.25 1017.99 1016.48 1014.47 1014.18 1014.07 1013.99 1013.95 1014.07 1014.51 1014.68 1014.93 1014.97 1014.72 1013.86 1013.78 1013.85 1011.94 1009.46 1008.03 1006.98 1006.79 1006.55 1005.94 1005.57 1005.33 1005.34 1005.34 1005.38 1005.44 1005.56 1005.70 1005.68 1005.72
1017.48 1017.87 1018.14 1018.42 1018.61 1018.39 1018.25 1018.32 1018.13 1017.92 1018.39 1018.18 1016.25 1014.03 1013.02 1013.26 1013.06 1012.99 1013.09 1013.48 1013.73 1014.20 1014.33 1014.05 1013.58 1013.17 1013.22 1011.10 1008.76 1007.84 1006.87 1006.26 1005.73 1005.54 1005.35 1004.89 1005.04 1004.93 1004.94 1005.14 1005.18 1005.30 1005.43 1005.50
1017.66 1017.95 1018.28 1018.54 1018.67 1018.78 1018.41 1017.90 1018.44 1018.29 1018.26 1017.67 1016.19 1014.28 1013.31 1012.50 1012.46 1012.72 1012.97 1013.09 1013.67 1014.15 1013.85 1013.09 1012.09 1011.57 1011.31 1009.28 1007.06 1006.42 1005.97 1005.34 1004.89 1004.80 1004.88 1004.69 1004.73 1004.74 1004.69 1004.89 1004.82 1004.96 1005.02 1005.03
1017.70 1018.02 1018.37 1018.33 1018.25 1018.38 1017.78 1018.26 1018.61 1018.48 1018.63 1017.32 1015.76 1014.34 1012.85 1012.51 1012.58 1012.63 1013.32 1013.57 1013.29 1013.31 1012.58 1011.57 1011.37 1009.73 1008.38 1006.52 1006.12 1005.54 1005.13 1004.82 1004.70 1004.77 1004.74 1004.55 1004.54 1004.56 1004.65 1004.66 1004.92 1005.13 1005.11 1005.22
1017.72 1018.17 1017.84 1017.92 1017.41 1017.79 1018.11 1018.62 1018.16 1017.81 1017.61 1016.91 1015.19 1014.15 1013.20 1013.12 1013.10 1013.02 1013.09 1012.81 1012.41 1011.40 1010.52 1010.53 1009.85 1007.78 1006.52 1005.91 1005.32 1005.02 1005.02 1005.17 1005.15 1005.08 1004.92 1004.90 1004.80 1004.83 1004.91 1005.30 1005.55 1005.81 1005.95 1006.15
1017.78 1017.61 1017.27 1017.08 1017.55 1017.67 1017.39 1017.40 1017.12 1016.19 1015.61 1014.45 1013.65 1013.15 1012.35 1012.62 1012.98 1013.24 1013.72 1012.41 1011.27 1010.19 1009.14 1009.12 1007.51 1005.77 1005.36 1004.75 1004.69 1005.29 1006.08 1006.46 1006.54 1006.28 1005.75 1005.70 1005.87 1005.97 1006.08 1006.27 1006.44 1006.80 1006.96 1007.07
1016.79 1016.64 1016.95 1017.36 1017.55 1017.31 1016.88 1015.77 1014.79 1014.19 1012.95 1011.66 1011.76 1011.65 1011.50 1011.72 1012.07 1013.13 1013.06 1011.73 1010.90 1009.31 1008.90 1008.37 1006.44 1005.18 1004.34 1004.70 1005.63 1006.90 1007.59 1007.93 1007.99 1007.87 1007.82 1007.96 1007.95 1008.01 1007.93 1007.87 1007.96 1008.12 1008.65 1008.84
1017.00 1017.34 1017.40 1017.28 1016.62 1016.14 1014.86 1013.64 1012.95 1012.02 1011.54 1011.41 1011.48 1011.52 1011.27 1011.44 1012.29 1012.37 1011.72 1010.87 1009.81 1009.18 1008.55 1007.22 1005.75 1005.30 1006.44 1006.94 1007.51 1008.39 1009.01 1009.32 1009.47 1009.63 1009.63 1009.61 1009.63 1009.66 1009.58 1009.57 1009.70 1009.72 1009.69 1009.64
1016.95 1016.95 1016.59 1015.93 1014.87 1013.93 1012.65 1012.19 1011.52 1011.11 1011.79 1012.05 1012.08 1011.94 1011.29 1011.25 1011.26 1010.95 1010.84 1010.06 1009.61 1008.74 1007.52 1006.06 1005.84 1006.77 1007.62 1008.34 1008.72 1009.05 1009.56 1010.02 1010.26 1010.41 1010.54 1010.63 1010.68 1010.71 1010.61 1010.53 1010.49 1010.39 1010.42 1010.49
1016.43 1016.10 1015.09 1013.88 1013.15 1013.00 1012.92 1012.79 1012.22 1011.74 1011.94 1011.98 1011.96 1011.80 1011.44 1010.95 1010.91 1010.66 1010.23 1009.79 1008.67 1007.46 1006.14 1005.76 1006.57 1007.44 1008.36 1008.81 1009.15 1009.65 1010.25 1010.68 1010.83 1011.05 1011.32 1011.41 1011.30 1011.25 1011.34 1011.34 1011.24 1011.22 1011.28 1011.32
1015.94 1015.09 1014.28 1013.60 1013.39 1012.70 1012.59 1012.50 1012.09 1011.73 1011.66 1011.71 1011.47 1010.95 1010.74 1010.31 1009.98 1009.74 1009.18 1008.26 1007.01 1006.31 1006.30 1006.66 1007.43 1008.23 1008.79 1009.23 1009.63 1010.21 1010.67 1010.96 1011.19 1011.44 1011.67 1011.84 1011.82 1011.79 1011.90 1011.96 1012.02 1012.09 1012.09 1012.16
1014.69 1013.58 1013.40 1013.52 1013.41 1013.02 1012.46 1012.20 1011.80 1011.75 1011.70 1011.36 1010.84 1010.37 1009.49 1009.06 1008.76 1008.31 1007.67 1007.27 1007.15 1007.27 1007.23 1007.93 1008.38 1008.88 1009.43 1009.87 1010.22 1010.60 1011.06 1011.22 1011.50 1011.76 1011.99 1012.15 1012.18 1012.14 1012.13 1012.27 1012.51 1012.56 1012.71 1012.83
Thickness
5488 5489 5489 5485 5483 5481 5479 5487 5489 5494 5490 5496 5509 5514 5526 5525 5531 5526 5525 5529 5540 5541 5544 5541 5542 5540 5544 5552 5546 5539 5547 5546 5542 5550 5567 5569 5562 5559 5564 5553 5557 5570 5552 5544
5472 5474 5476 5476 5474 5472 5469 5477 5482 5475 5477 5494 5499 5507 5511 5516 5513 5513 5513 5515 5519 5524 5519 5514 5527 5529 5538 5530 5524 5522 5522 5531 5525 5539 5555 5566 5547 5550 5547 5544 5539 5530 5529 5540
5455 5455 5458 5460 5460 5458 5456 5452 5454 5454 5461 5487 5492 5497 5498 5496 5495 5494 5499 5497 5500 5500 5503 5507 5508 5510 5515 5513 5509 5500 5496 5509 5505 5508 5526 5545 5520 5528 5534 5531 5517 5514 5512 5516
5440 5439 5442 5444 5445 5442 5439 5437 5445 5454 5445 5450 5467 5472 5477 5482 5473 5474 5478 5481 5483 5486 5488 5495 5496 5500 5500 5499 5498 5492 5487 5494 5503 5512 5525 5533 5529 5523 5527 5521 5520 5513 5512 5511
5425 5425 5426 5427 5428 5424 5420 5417 5427 5428 5450 5451 5451 5451 5462 5469 5471 5465 5468 5470 5478 5477 5478 5482 5484 5481 5482 5484 5489 5489 5492 5488 5493 5494 5513 5515 5512 5520 5521 5520 5519 5518 5518 5516
5410 5411 5411 5411 5410 5408 5406 5404 5409 5412 5417 5433 5437 5437 5450 5455 5452 5437 5460 5460 5460 5461 5462 5461 5465 5466 5468 5470 5473 5473 5476 5477 5481 5482 5500 5496 5489 5508 5506 5510 5514 5512 5502 5511
5392 5392 5394 5394 5394 5395 5397 5397 5395 5398 5409 5414 5423 5425 5433 5429 5440 5444 5445 5445 5439 5445 5444 5448 5453 5458 5462 5465 5471 5472 5470 5472 5474 5477 5487 5469 5504 5512 5511 5505 5508 5506 5507 5506
5380 5381 5380 5381 5382 5383 5387 5387 5386 5388 5398 5406 5406 5412 5420 5420 5416 5417 5428 5436 5438 5436 5435 5429 5438 5458 5464 5473 5478 5478 5479 5474 5467 5457 5476 5490 5505 5514 5506 5500 5501 5504 5502 5498
5367 5368 5369 5369 5370 5371 5376 5378 5378 5374 5374 5380 5395 5394 5406 5410 5416 5419 5424 5426 5424 5426 5427 5419 5422 5450 5469 5480 5484 5493 5487 5480 5469 5466 5459 5475 5505 5492 5494 5492 5487 5490 5480 5474
5355 5354 5352 5352 5353 5356 5361 5370 5365 5366 5362 5377 5380 5382 5390 5401 5406 5415 5421 5421 5417 5422 5415 5412 5432 5451 5466 5470 5474 5476 5470 5472 5467 5469 5466 5485 5501 5488 5486 5476 5478 5476 5471 5468
5341 5340 5338 5337 5337 5337 5343 5351 5346 5351 5353 5364 5367 5372 5376 5384 5389 5392 5394 5399 5410 5410 5405 5420 5438 5447 5461 5468 5471 5472 5463 5461 5471 5468 5466 5470 5486 5481 5472 5476 5473 5470 5468 5466
5327 5328 5324 5326 5329 5324 5326 5338 5335 5336 5342 5354 5354 5356 5362 5367 5372 5378 5381 5391 5395 5380 5391 5416 5407 5429 5448 5458 5459 5471 5461 5469 5470 5466 5476 5482 5478 5475 5474 5471 5467 5466 5463 5460
5315 5314 5315 5316 5320 5319 5320 5328 5329 5330 5332 5342 5351 5356 5360 5360 5360 5363 5368 5378 5382 5389 5381 5378 5383 5396 5425 5431 5445 5452 5459 5460 5465 5457 5468 5471 5473 5475 5474 5471 5468 5466 5462 5461
5310 5309 5308 5312 5313 5313 5313 5320 5321 5325 5331 5331 5353 5355 5355 5357 5359 5361 5362 5368 5372 5373 5369 5366 5373 5388 5415 5424 5431 5432 5450 5440 5446 5454 5462 5468 5469 5469 5466 5465 5462 5458 5456 5456
5304 5304 5306 5306 5307 5308 5309 5314 5316 5318 5322 5328 5340 5349 5353 5355 5358 5361 5363 5362 5362 5366 5363 5365 5377 5394 5395 5414 5424 5438 5447 5448 5441 5447 5458 5461 5463 5463 5460 5456 5455 5455 5453 5451
5300 5301 5303 5302 5303 5302 5307 5311 5316 5314 5313 5315 5327 5358 5358 5359 5363 5367 5369 5367 5369 5368 5369 5373 5385 5390 5383 5393 5424 5445 5454 5452 5452 5455 5459 5459 5457 5458 5456 5452 5452 5452 5452 5452
5296 5296 5296 5297 5297 5300 5307 5310 5309 5308 5306 5306 5327 5352 5365 5361 5365 5369 5371 5370 5370 5367 5368 5367 5379 5387 5376 5395 5417 5436 5443 5448 5453 5453 5452 5454 5452 5451 5453 5450 5449 5448 5448 5448
5289 5291 5291 5292 5292 5294 5300 5302 5298 5301 5303 5309 5321 5341 5354 5364 5365 5363 5365 5365 5361 5353 5359 5371 5386 5393 5385 5402 5437 5440 5443 5449 5452 5453 5451 5451 5450 5448 5448 5446 5446 5445 5445 5446
5283 5284 5286 5288 5292 5291 5297 5294 5293 5294 5295 5303 5320 5332 5347 5360 5360 5364 5352 5351 5355 5359 5366 5380 5381 5395 5400 5432 5435 5438 5443 5445 5446 5445 5444 5445 5443 5443 5441 5441 5439 5437 5439 5439
5279 5279 5287 5282 5293 5290 5289 5286 5289 5292 5292 5301 5317 5337 5340 5348 5348 5349 5354 5355 5365 5378 5388 5384 5383 5409 5425 5430 5435 5438 5437 5435 5435 5434 5435 5435 5435 5434 5433 5429 5427 5425 5425 5423
5275 5278 5284 5292 5287 5288 5289 5284 5284 5298 5300 5319 5329 5338 5347 5350 5343 5346 5344 5361 5375 5381 5398 5391 5410 5425 5426 5437 5436 5428 5419 5416 5414 5417 5423 5421 5418 5416 5414 5413 5412 5408 5408 5409
5280 5286 5286 5285 5281 5281 5282 5295 5309 5309 5321 5341 5339 5347 5353 5354 5356 5341 5343 5360 5370 5384 5394 5389 5408 5428 5438 5433 5419 5401 5393 5390 5389 5389 5390 5386 5387 5385 5386 5388 5388 5389 5382 5376
5275 5275 5276 5277 5288 5284 5296 5310 5323 5331 5339 5342 5343 5343 5351 5354 5349 5348 5358 5362 5375 5388 5381 5395 5417 5428 5402 5396 5388 5376 5368 5366 5364 5362 5362 5363 5362 5361 5361 5360 5359 5361 5364 5366
5274 5277 5282 5291 5299 5314 5334 5338 5345 5348 5336 5333 5332 5336 5347 5353 5356 5363 5356 5374 5375 5373 5382 5402 5415 5397 5380 5369 5366 5368 5363 5356 5355 5353 5351 5350 5350 5350 5350 5351 5352 5354 5355 5354
5281 5288 5297 5316 5327 5324 5322 5322 5332 5339 5336 5333 5332 5338 5343 5350 5350 5357 5362 5359 5369 5387 5402 5412 5398 5383 5371 5368 5366 5361 5354 5347 5347 5345 5342 5342 5343 5344 5342 5342 5344 5344 5343 5343
5291 5301 5305 5318 5318 5329 5329 5329 5333 5340 5339 5339 5343 5348 5349 5353 5360 5357 5362 5379 5392 5403 5402 5395 5382 5371 5366 5362 5359 5352 5346 5343 5341 5339 5337 5335 5335 5336 5334 5333 5332 5331 5331 5329
5305 5316 5321 5318 5319 5321 5330 5333 5338 5338 5339 5341 5351 5347 5361 5374 5371 5375 5388 5387 5392 5385 5383 5372 5366 5361 5355 5350 5345 5341 5337 5336 5334 5331 5330 5328 5328 5329 5330 5326 5323 5323 5321 5319